Flag for Nepal Weather past 2 weeks in Pokhara, Nepal

Now
82 °F

Scattered clouds.


Feels Like: 85 °F
Forecast: 65 / 87 °F
Wind: 6 mph from Southwest

Location: Kathmandu Airport

Current Time: Jul 26, 2014 at 3:47:56 PM

Latest Report: Jul 26, 2014 at 2:35 PM


Visibility: 5 mi

Pressure: 29.86 "Hg

Humidity: 62%

Dew point: 68 °F

Location of PokharaLocation

Historic Weather in Pokhara — Graph

°F

Pokhara temperature yesterday

Maximum temperature yesterday: 79 °F (at 12:35 PM)
Minimum temperature yesterday: 68 °F (at 3:35 AM)
Average temperature yesterday: 73 °F

Past Weeks' High & Low Weather Summary

 TemperatureHumidityPressure
High86 °F (Jul 12, 1:35 PM)100% (Jul 13, 1:35 PM)29.98 "Hg (Jul 13, 1:35 PM)
Low68 °F (Jul 13, 1:35 PM)50% (Jul 21, 12:35 AM)29.62 "Hg (Jul 19, 4:35 PM)
Average75 °F79%29.79 "Hg
* Reported Jul 11 2:35 PM — Jul 26 2:35 PM, Pokhara, Weather by CustomWeather, © 2014

Note: Actual official high and low records may vary slightly from our data, if they occured in-between our weather recording intervals... More about our weather records

Advertising

Pokhara weather history for previous 24 hours

 ConditionsComfort  
Time TempWeatherWind HumidityBarometerVisibility
2:35 PM
Jul 26
82 °FScattered clouds.6 mph62%29.86 "Hg5 mi
1:35 PM82 °FScattered clouds.5 mph55%29.89 "Hg5 mi
12:35 PM81 °FBroken clouds.3 mph58%29.92 "Hg5 mi
11:35 AM79 °FBroken clouds.No wind65%29.95 "Hg5 mi
10:35 AM77 °FBroken clouds.No wind69%29.95 "Hg5 mi
9:35 AM73 °FBroken clouds.2 mph78%29.98 "Hg4 mi
8:35 AM72 °FBroken clouds.No wind88%29.98 "Hg4 mi
7:35 AM72 °FBroken clouds.No wind88%29.95 "Hg4 mi
6:35 AM70 °FBroken clouds.No wind94%29.95 "Hg4 mi
4:35 AM68 °FLight rain. Partly cloudy.No wind100%29.92 "Hg4 mi
3:35 AM70 °FLight rain. Partly cloudy.No wind94%29.92 "Hg4 mi
2:35 AM70 °FRain. Mostly cloudy.3 mph94%29.92 "Hg4 mi
12:35 AM70 °FLight rain. Mostly cloudy.5 mph100%29.95 "Hg4 mi
11:35 PM
Jul 25
70 °FLight rain. Mostly cloudy.2 mph94%29.95 "Hg4 mi
10:35 PM72 °FDrizzle. Mostly cloudy.2 mph83%29.95 "Hg5 mi
9:35 PM72 °FLight rain. Mostly cloudy.5 mph88%29.92 "Hg4 mi
8:35 PM72 °FLight rain. Mostly cloudy.3 mph88%29.89 "Hg4 mi
7:35 PM73 °FLight rain. Broken clouds.5 mph89%29.89 "Hg4 mi
6:35 PM75 °FBroken clouds.5 mph78%29.86 "Hg5 mi
5:35 PM77 °FBroken clouds.12 mph65%29.80 "Hg5 mi
4:35 PM77 °FBroken clouds.12 mph69%29.80 "Hg5 mi
3:35 PM79 °FRain. Broken clouds.5 mph70%29.80 "Hg5 mi
Weather by CustomWeather, © 2014

See weather overviewHow to use our weather pages